When you browse on this site, cookies collect data to enhance your experience and personalize the content and advertising you see.
Visit our Privacy Policy to learn more. By continuing to use the site, you agree to this use of cookies and data.
  • Em Portugal
  • Lista de países
  • Para 7 dias
  • Temperatura da água
  • Mapas de satélite
  • Mapa do tempo
  • Widgets de tempo
  • user-avatar
    Iniciar Sessão

    Previsão horária em Nemkovo

    Hoje, 24 Abril, Quarta-feira

    Tempo Temperatura Precipitação Vento Pressão Humidade
    00:00 +10°C° 0 mm 0 m/s 752 mmHg 53%
    01:00 +10°C° 0 mm 0 m/s 752 mmHg 55%
    02:00 +9°C° 0 mm 0 m/s 752 mmHg 54%
    03:00 +9°C° 0 mm 0 m/s 753 mmHg 55%
    04:00 +8°C° 0 mm 0 m/s 753 mmHg 57%
    05:00 +8°C° 0 mm 0 m/s 753 mmHg 58%
    06:00 +11°C° 0 mm 0 m/s 753 mmHg 53%
    07:00 +13°C° 0 mm 0 m/s 753 mmHg 48%
    08:00 +15°C° 0 mm 0 m/s 753 mmHg 42%
    09:00 +18°C° 0 mm 0 m/s 753 mmHg 38%
    10:00 +20°C° 0 mm 0 m/s 753 mmHg 34%
    11:00 +22°C° 0 mm 0 m/s 753 mmHg 29%
    12:00 +22°C° 0 mm 0 m/s 753 mmHg 28%
    13:00 +23°C° 0 mm 0 m/s 752 mmHg 27%
    14:00 +23°C° 0 mm 0 m/s 752 mmHg 26%
    15:00 +22°C° 0 mm 0 m/s 752 mmHg 27%
    16:00 +22°C° 0 mm 0 m/s 752 mmHg 28%
    17:00 +21°C° 0 mm 0 m/s 752 mmHg 29%
    18:00 +19°C° 0 mm 0 m/s 751 mmHg 34%
    19:00 +17°C° 0 mm 0 m/s 751 mmHg 39%
    20:00 +14°C° 0 mm 0 m/s 751 mmHg 44%
    21:00 +14°C° 0 mm 0 m/s 751 mmHg 47%
    22:00 +13°C° 0 mm 0 m/s 751 mmHg 50%
    23:00 +12°C° 0 mm 0 m/s 751 mmHg 52%

    Amanhã, 25 Abril, Quinta-feira

    Tempo Temperatura Precipitação Vento Pressão Humidade
    00:00 +12°C° 0 mm 0 m/s 751 mmHg 54%
    01:00 +12°C° 0 mm 0 m/s 751 mmHg 56%
    02:00 +11°C° 0 mm 0 m/s 751 mmHg 58%
    03:00 +12°C° 0 mm 0 m/s 751 mmHg 58%
    04:00 +12°C° 0 mm 0 m/s 751 mmHg 58%
    05:00 +12°C° 0 mm 0 m/s 751 mmHg 58%
    06:00 +14°C° 0 mm 1 m/s 751 mmHg 56%
    07:00 +15°C° 0 mm 1 m/s 751 mmHg 54%
    08:00 +16°C° 0 mm 1 m/s 751 mmHg 53%
    09:00 +19°C° 0 mm 1 m/s 751 mmHg 46%
    10:00 +21°C° 0 mm 1 m/s 751 mmHg 40%
    11:00 +23°C° 0 mm 2 m/s 750 mmHg 33%
    12:00 +23°C° 0 mm 2 m/s 750 mmHg 33%
    13:00 +23°C° 0 mm 2 m/s 750 mmHg 32%
    14:00 +23°C° 0 mm 2 m/s 750 mmHg 32%
    15:00 +23°C° 0 mm 2 m/s 749 mmHg 34%
    16:00 +21°C° 0 mm 2 m/s 749 mmHg 35%
    17:00 +22°C° 0 mm 1 m/s 749 mmHg 37%
    18:00 +20°C° 0 mm 1 m/s 749 mmHg 43%
    19:00 +18°C° 0 mm 1 m/s 749 mmHg 48%
    20:00 +15°C° 0 mm 1 m/s 748 mmHg 53%
    21:00 +15°C° 0 mm 1 m/s 748 mmHg 55%
    22:00 +14°C° 0 mm 1 m/s 748 mmHg 56%
    23:00 +13°C° 0 mm 1 m/s 748 mmHg 57%

    Depois de amanhã, 26 Abril, Sexta-feira

    Tempo Temperatura Precipitação Vento Pressão Humidade
    00:00 +13°C° 0 mm 1 m/s 748 mmHg 59%
    01:00 +12°C° 0 mm 1 m/s 748 mmHg 60%
    02:00 +12°C° 0 mm 1 m/s 748 mmHg 61%
    03:00 +12°C° 0 mm 1 m/s 748 mmHg 62%
    04:00 +11°C° 0 mm 1 m/s 748 mmHg 64%
    05:00 +11°C° 0 mm 1 m/s 748 mmHg 66%
    06:00 +13°C° 0 mm 1 m/s 748 mmHg 61%
    07:00 +15°C° 0 mm 1 m/s 748 mmHg 56%
    08:00 +17°C° 0 mm 2 m/s 748 mmHg 51%
    09:00 +18°C° 0 mm 2 m/s 747 mmHg 45%
    10:00 +20°C° 0 mm 3 m/s 747 mmHg 39%
    11:00 +21°C° 0 mm 3 m/s 747 mmHg 33%
    12:00 +21°C° 0 mm 3 m/s 747 mmHg 33%
    13:00 +22°C° 0 mm 3 m/s 746 mmHg 32%
    14:00 +22°C° 0 mm 3 m/s 746 mmHg 32%
    15:00 +21°C° 0 mm 3 m/s 745 mmHg 36%
    16:00 +21°C° 0 mm 2 m/s 745 mmHg 40%
    17:00 +20°C° 0 mm 2 m/s 744 mmHg 44%
    18:00 +19°C° 0 mm 2 m/s 744 mmHg 50%
    19:00 +17°C° 0 mm 2 m/s 744 mmHg 55%
    20:00 +15°C° 0 mm 1 m/s 743 mmHg 61%
    21:00 +14°C° 0 mm 2 m/s 743 mmHg 66%
    22:00 +14°C° 0 mm 2 m/s 743 mmHg 70%
    23:00 +13°C° 0 mm 2 m/s 743 mmHg 75%

    27 Abril, Sábado

    Tempo Temperatura Precipitação Vento Pressão Humidade
    00:00 +12°C° 0 mm 2 m/s 742 mmHg 77%
    01:00 +12°C° 0 mm 2 m/s 742 mmHg 79%
    02:00 +10°C° 0 mm 2 m/s 742 mmHg 81%
    03:00 +10°C° 0 mm 2 m/s 742 mmHg 80%
    04:00 +10°C° 0 mm 2 m/s 741 mmHg 79%
    05:00 +10°C° 0 mm 1 m/s 741 mmHg 78%
    06:00 +12°C° 0 mm 1 m/s 741 mmHg 70%
    07:00 +14°C° 0 mm 1 m/s 740 mmHg 63%
    08:00 +16°C° 0 mm 1 m/s 740 mmHg 55%
    09:00 +19°C° 0 mm 1 m/s 740 mmHg 51%
    10:00 +20°C° 0 mm 1 m/s 740 mmHg 46%
    11:00 +22°C° 0 mm 1 m/s 740 mmHg 42%
    12:00 +22°C° 0.3 mm 1 m/s 740 mmHg 44%
    13:00 +22°C° 0.3 mm 1 m/s 739 mmHg 46%
    14:00 +23°C° 0.3 mm 1 m/s 739 mmHg 49%
    15:00 +22°C° 1.2 mm 1 m/s 739 mmHg 52%
    16:00 +21°C° 1.2 mm 1 m/s 739 mmHg 55%
    17:00 +20°C° 1.2 mm 1 m/s 739 mmHg 59%
    18:00 +19°C° 0.4 mm 1 m/s 739 mmHg 65%
    19:00 +16°C° 0.4 mm 1 m/s 739 mmHg 70%
    20:00 +15°C° 0.4 mm 1 m/s 739 mmHg 76%
    21:00 +14°C° 0 mm 1 m/s 739 mmHg 76%
    22:00 +14°C° 0 mm 2 m/s 740 mmHg 76%
    23:00 +14°C° 0 mm 2 m/s 740 mmHg 76%

    28 Abril, Domingo

    Tempo Temperatura Precipitação Vento Pressão Humidade
    00:00 +13°C° 0 mm 2 m/s 740 mmHg 75%
    01:00 +11°C° 0 mm 3 m/s 741 mmHg 74%
    02:00 +10°C° 0 mm 3 m/s 741 mmHg 74%
    03:00 +10°C° 0 mm 3 m/s 742 mmHg 76%
    04:00 +9°C° 0 mm 3 m/s 742 mmHg 78%
    05:00 +7°C° 0 mm 4 m/s 742 mmHg 80%
    06:00 +8°C° 0 mm 4 m/s 743 mmHg 76%
    07:00 +10°C° 0 mm 4 m/s 743 mmHg 72%
    08:00 +10°C° 0 mm 4 m/s 744 mmHg 69%
    09:00 +11°C° 0 mm 4 m/s 744 mmHg 63%
    10:00 +12°C° 0 mm 4 m/s 745 mmHg 56%
    11:00 +13°C° 0 mm 4 m/s 745 mmHg 50%
    12:00 +13°C° 0 mm 4 m/s 745 mmHg 45%
    13:00 +14°C° 0 mm 4 m/s 745 mmHg 40%
    14:00 +14°C° 0 mm 4 m/s 746 mmHg 35%
    15:00 +14°C° 0 mm 4 m/s 746 mmHg 35%
    16:00 +13°C° 0 mm 4 m/s 746 mmHg 35%
    17:00 +12°C° 0 mm 4 m/s 746 mmHg 35%
    18:00 +11°C° 0 mm 3 m/s 746 mmHg 42%
    19:00 +9°C° 0 mm 3 m/s 747 mmHg 49%
    20:00 +7°C° 0 mm 2 m/s 747 mmHg 55%
    21:00 +7°C° 0 mm 2 m/s 748 mmHg 59%
    22:00 +6°C° 0 mm 2 m/s 748 mmHg 62%
    23:00 +5°C° 0 mm 2 m/s 749 mmHg 65%

    29 Abril, Segunda-feira

    Tempo Temperatura Precipitação Vento Pressão Humidade
    00:00 +4°C° 0 mm 2 m/s 749 mmHg 67%
    01:00 +4°C° 0 mm 2 m/s 749 mmHg 69%
    02:00 +3°C° 0 mm 2 m/s 749 mmHg 70%
    03:00 +2°C° 0 mm 2 m/s 749 mmHg 69%
    04:00 +2°C° 0 mm 2 m/s 750 mmHg 69%
    05:00 +2°C° 0 mm 2 m/s 750 mmHg 68%
    06:00 +3°C° 0 mm 2 m/s 750 mmHg 60%
    07:00 +5°C° 0 mm 2 m/s 750 mmHg 52%
    08:00 +5°C° 0 mm 3 m/s 750 mmHg 45%
    09:00 +8°C° 0 mm 3 m/s 750 mmHg 41%
    10:00 +9°C° 0 mm 2 m/s 750 mmHg 38%
    11:00 +10°C° 0 mm 2 m/s 750 mmHg 34%
    12:00 +12°C° 0 mm 2 m/s 750 mmHg 32%
    13:00 +13°C° 0 mm 2 m/s 749 mmHg 30%
    14:00 +13°C° 0 mm 2 m/s 749 mmHg 28%
    15:00 +13°C° 0 mm 2 m/s 749 mmHg 29%
    16:00 +13°C° 0 mm 2 m/s 748 mmHg 30%
    17:00 +13°C° 0 mm 2 m/s 748 mmHg 31%
    18:00 +11°C° 0 mm 1 m/s 748 mmHg 37%
    19:00 +9°C° 0 mm 1 m/s 748 mmHg 43%
    20:00 +7°C° 0 mm 1 m/s 748 mmHg 50%
    21:00 +6°C° 0 mm 1 m/s 748 mmHg 52%
    22:00 +6°C° 0 mm 1 m/s 748 mmHg 55%
    23:00 +5°C° 0 mm 1 m/s 749 mmHg 58%
    Mostrar mais